Regional Weather Roundup
Issued by NWS

Home | Current Version | Previous Version | Text Only | Print | Product List | Glossary Off
Versions: 1 2 3 4 5 6 7 8 9 10 11 12 13 14 15 16 17 18 19 20 21 22 23 24 25 26 27 28 29 30 31 32 33 34 35 36 37 38 39 40 41 42 43 44 45 46 47 48 49 50

000
ASUS43 KIND 012359
RWRIN

WEATHER ROUNDUP FOR INDIANA
NATIONAL WEATHER SERVICE INDIANAPOLIS IN
800 PM EDT MON SEP 01 2014

NOTE: "FAIR" INDICATES FEW OR NO CLOUDS BELOW 12,000 FEET WITH NO
SIGNIFICANT WEATHER AND/OR OBSTRUCTIONS TO VISIBILITY.

* - STATION DOES NOT REPORT WEATHER SUCH AS PRECIPITATION OR FOG.

+ - STATION NOT QUALITY CONTROLLED BY THE NATIONAL WEATHER SERVICE.
    USE DATA WITH CAUTION...ESPECIALLY DEWPOINT AND RELATIVE
    HUMIDITY OBSERVATIONS.

INZ001>003-010>013-019-020-020100-
NORTHWEST INDIANA

CITY           SKY/WX    TMP DP  RH WIND       PRES   REMARKS
GARY /AIRPORT/ PTCLDY    81  64  57 SW12G23   29.81R
KNOX *+        CLEAR     77  66  69 SW10      29.81R
MONTICELLO +   CLEAR     77  66  70 SW7       29.84S
VALPARAISO     PTCLDY    78  66  66 W10       29.83R
6HR MIN TEMP:  78; 6HR MAX TEMP:  84;


$$

LMZ046-743>745-020100-
SOUTHERN LAKE MICHIGAN

STATION/POSITION TIME  TEMP WIND        PRES
                       AIR  DIR/SP/G
                 (UTC) (F)  (DEG/KT/KT) (MB)
MICHIGAN CITY    2300   77  220/ 16/ 18   N/A

$$

INZ004-005-014>016-021>024-020100-
NORTH CENTRAL INDIANA

CITY           SKY/WX    TMP DP  RH WIND       PRES   REMARKS
GOSHEN         PTCLDY    80  67  64 SW10      29.81S
6HR MIN TEMP:  79; 6HR MAX TEMP:  85; 6HR PCP:  0.01;

SOUTH BEND     PTCLDY    79  66  64 SW9       29.81R
6HR MIN TEMP:  77; 6HR MAX TEMP:  84; 6HR PCP:  0.03;


$$

INZ006>009-017-018-025>027-020100-
NORTHEAST INDIANA

CITY           SKY/WX    TMP DP  RH WIND       PRES   REMARKS
ANGOLA *+      PTCLDY    79  72  78 SW6       29.81S
FORT WAYNE     MOCLDY    78  70  76 SW13      29.85R
6HR MIN TEMP:  78; 6HR MAX TEMP:  83; 6HR PCP: TRACE;


$$

INZ028-029-035-036-043>045-051>053-020100-
WEST CENTRAL INDIANA

CITY           SKY/WX    TMP DP  RH WIND       PRES   REMARKS
GREENCASTLE +  MOCLDY    75  68  78 CALM      29.91R
LAFAYETTE      CLEAR     77  65  66 SW6       29.86R
6HR MIN TEMP:  77; 6HR MAX TEMP:  83;

TERRE HAUTE    PTCLDY    78  67  68 SW8       29.90R
6HR MIN TEMP:  78; 6HR MAX TEMP:  84;


$$

INZ030>032-037>040-046>048-054>057-064-065-020100-
CENTRAL INDIANA

CITY           SKY/WX    TMP DP  RH WIND       PRES   REMARKS
COLUMBUS       CLEAR     79  73  83 SW14      29.91F
FRANKFORT +    PTCLDY    77  65  68 W9        29.89R
INDIANAPOLIS   MOCLDY    78  68  71 SW13      29.88R
6HR MIN TEMP:  78; 6HR MAX TEMP:  82;

-EAGLE CREEK   MOCLDY    79  67  66 SW9       29.88R
6HR MIN TEMP:  79; 6HR MAX TEMP:  82; 6HR PCP:  0.01;

KOKOMO *+      MOCLDY    79  68  69 W15       29.86R
MT COMFORT *+  PTCLDY    79  72  78 SW10G17   29.90R
SHELBYVILLE    PTCLDY    80  72  76 SW9       29.89F
6HR MIN TEMP:  76; 6HR MAX TEMP:  84; 6HR PCP:  0.13;


$$

INZ033-034-041-042-049-050-058-059-020100-
EAST CENTRAL INDIANA

CITY           SKY/WX    TMP DP  RH WIND       PRES   REMARKS
MUNCIE         PTCLDY    80  68  66 SW12      29.87S
6HR MIN TEMP:  79; 6HR MAX TEMP:  83; 6HR PCP:  0.04;


$$

INZ060-061-067>069-081>083-085>088-020100-
SOUTHWEST INDIANA

CITY           SKY/WX    TMP DP  RH WIND       PRES   REMARKS
EVANSVILLE     MOCLDY    82  72  71 SW9       29.95R
6HR MIN TEMP:  82; 6HR MAX TEMP:  84;


$$

INZ062-063-066-070>080-084-089>092-020100-
SOUTH CENTRAL AND SOUTHEAST INDIANA

CITY           SKY/WX    TMP DP  RH WIND       PRES   REMARKS
BLOOMINGTON    MOCLDY    77  71  82 SW7       29.92S
6HR MIN TEMP:  77; 6HR MAX TEMP:  81; 6HR PCP: TRACE;


$$



USA.gov is the U.S. government's official web portal to all federal, state and local government web resources and services.